This is the latest recevied weather packets stored in our database for station/object LU3HGB-WX. If no packets are shown the sender has not sent any weather packets the latest 10 day(s).
| Time | Temp. | Humidity | Pressure | Rain* | Wind** | Luminosity | Snow |
|---|---|---|---|---|---|---|---|
| 1788003759 | 6.11° C | 84% | 1014 hPa | 0 mm | - | 123 W/m² | - |
| 1788003459 | 5.56° C | 83% | 1014 hPa | 0 mm | - | 105 W/m² | - |
| 1788003160 | 5° C | 87% | 1014 hPa | 0 mm | - | 81 W/m² | - |
| 1788002860 | 5° C | 87% | 1014 hPa | 0 mm | - | 51 W/m² | - |
| 1788002559 | 5° C | 87% | 1014 hPa | 0 mm | - | 40 W/m² | - |
| 1788002260 | 5° C | 87% | 1014 hPa | 0 mm | - | 42 W/m² | - |
| 1788001960 | 4.44° C | 86% | 1014 hPa | 0 mm | - | 42 W/m² | - |
| 1788001660 | 4.44° C | 86% | 1014 hPa | 0 mm | - | 34 W/m² | - |
| 1788001359 | 4.44° C | 88% | 1014 hPa | 0 mm | - | 27 W/m² | - |
| 1788001062 | 4.44° C | 88% | 1014 hPa | 0 mm | - | 20 W/m² | - |
| 1788000759 | 4.44° C | 86% | 1013 hPa | 0 mm | - | 12 W/m² | - |
| 1788000460 | 5° C | 86% | 1013 hPa | 0 mm | - | 7 W/m² | - |
| 1788000160 | 5° C | 88% | 1013 hPa | 0 mm | - | 5 W/m² | - |
| 1787999860 | 5° C | 86% | 1013 hPa | 0 mm | - | 2 W/m² | - |
| 1787999560 | 5.56° C | 87% | 1013 hPa | 0 mm | - | 1 W/m² | - |
| 1787999259 | 5.56° C | 86% | 1013 hPa | 0 mm | - | 0 W/m² | - |
| 1787998959 | 6.67° C | 81% | 1013 hPa | 0 mm | - | 0 W/m² | - |
| 1787998659 | 6.67° C | 81% | 1013 hPa | 0 mm | - | 0 W/m² | - |
| 1787998359 | 6.67° C | 81% | 1013 hPa | 0 mm | - | 0 W/m² | - |
| 1787998059 | 6.67° C | 79% | 1013 hPa | 0 mm | - | 0 W/m² | - |
| 1787997759 | 6.11° C | 83% | 1013 hPa | 0 mm | - | 0 W/m² | - |
| 1787997460 | 6.11° C | 85% | 1013 hPa | 0 mm | - | 0 W/m² | - |
| 1787997160 | 6.11° C | 86% | 1013 hPa | 0 mm | - | 0 W/m² | - |
| 1787996860 | 5.56° C | 87% | 1013 hPa | 0 mm | - | 0 W/m² | - |
| 1787996560 | 5° C | 87% | 1013 hPa | 0 mm | - | 0 W/m² | - |
* Rain latest hour (hover to see other rain measurements)
** Current wind speed in m/s (hover to see current wind gust speed)